User: anonymous   Login
Location: Poughquag
(41.6090°N, 73.6820°W)
Time: 06:40:37
(UTC-04:00)
Language:

DMSP 5D-2 F13 DEB - Orbit

View from above orbital plane
View from above orbital plane
View from above satellite
View from above satellite

Ground track
Ground track

The orbit data is extracted from the following two-line orbital elements,

1 42273U 95015GP  24279.93318311  .00190634  00000-0  29558-1 0  9994
2 42273  98.6980 341.1129 0011173 162.1808 197.9791 14.71925894486483
Epoch (UTC): 05 October 2024 22:23:47
Eccentricity: 0.0011173
inclination: 98.6980°
perigee height: 647 km
apogee height: 663 km
right ascension of ascending node: 341.1129°
argument of perigee: 162.1808°
revolutions per day: 14.71925894
mean anomaly at epoch: 197.9791°
orbit number at epoch: 48648

The dashed part of the orbit path shows where the satellite is in the earth's shadow,  

DLR